Tracking 19489 objects as of 22-Jan-2019
HD Live streaming from Space Station
objects crossing your sky now

SLOSHSAT

Track SLOSHSAT now!
SLOSHSAT is classified as:


NORAD ID: 28544
Int'l Code: 2005-005C
Perigee: 250.5 km
Apogee: 32,780.3 km
Inclination: 6.7 °
Period: 574.3 minutes
Semi major axis: 22886 km
RCS: 0.5011 m2 (medium)
Launch date: February 12, 2005
Source: European Space Agency (ESA)
Launch site: FRENCH GUIANA (FRGUI)
aabbcc
Your satellite tracking list
Your tracking list is empty




NASA's NSSDC Master Catalog

Two Line Element Set (TLE):
1 28544U 05005C   19017.39561394 +.00001778 +00000-0 +41441-3 0  9991
2 28544 006.7465 216.1801 7106794 236.7054 035.1934 02.50747301121292
Source of the keplerian elements: AFSPC